Regional Weather Roundup
Issued by NWS

Home | Current Version | Previous Version | Graphics & Text | Print | Product List | Glossary On
Versions: 1 2 3 4 5 6 7 8 9 10 11 12 13 14 15 16 17 18 19 20 21 22 23 24 25 26 27 28 29 30 31 32 33 34 35 36 37 38 39 40 41 42 43 44 45 46 47 48 49 50
000
ASUS45 KABQ 010501
RWRNM
WEATHER ROUNDUP FOR NEW MEXICO
NATIONAL WEATHER SERVICE ALBUQUERQUE NM
1100 PM MDT TUE SEP 30 2014

NOTE: "FAIR" MEANS FEW OR NO CLOUDS BELOW 12,000 FEET AGL WITH NO
       SIGNIFICANT WEATHER OR OBSTRUCTIONS TO VISION.

      THIS PRODUCT IS RELEASED AS TWO VERSIONS.  ONE VERSION NEAR
      THE TOP OF THE HOUR CONTAINING PRELIMINARY DATA FROM ALBUQUERQUE
      AND OTHER STATIONS.  A FINAL VERSION WITH ADDITIONAL DATA IS
      ISSUED ABOUT 10 MINUTES AFTER THE HOUR.

NMZ501-503-504-510>518-010600-
NORTHWEST PLATEAU/NORTHCENTRAL MOUNTAINS

CITY           SKY/WX    TMP DP  RH WIND       PRES   REMARKS
FARMINGTON     CLEAR     50  42  74 N6        29.97S
LOS ALAMOS     CLEAR     52  32  46 N3        30.06F
SANTA FE       CLEAR     52  31  44 N13       29.99S
TAOS           CLEAR     41  30  65 CALM      30.06S
ANGEL FIRE     FAIR      43  31  62 SE8       30.10S

$$
NMZ402-403-502-505>509-010600-
WESTCENTRAL MOUNTAINS/SOUTHWEST MOUNTAINS

CITY           SKY/WX    TMP DP  RH WIND       PRES   REMARKS
GALLUP         CLEAR     47  38  71 NE5       30.03S
GRANTS         CLEAR     54  34  47 NW6       30.04S
SILVER CITY    CLEAR     57  36  44 N12       30.01S

$$
NMZ407-409-411-412-010600-
SOUTHERN DESERTS

CITY           SKY/WX    TMP DP  RH WIND       PRES   REMARKS
LORDSBURG      FAIR      63  36  36 MISG      29.93S
DEMING         CLEAR     62  36  37 SW7       29.92F
LAS CRUCES     CLEAR     62  32  32 W7        29.93R
HOLLOMAN AFB   PTCLDY    65  38  37 S7        29.88S
ALAMOGORDO     PTCLDY    63  41  45 SE8       29.90S
T OR C         CLEAR     66  37  34 W10       29.92R

$$
NMZ519>523-010600-
CENTRAL VALLEYS/CENTRAL HIGHLANDS

CITY           SKY/WX    TMP DP  RH WIND       PRES   REMARKS
ALBUQUERQUE    CLEAR     62  33  33 N5        29.96S
DOUBLE EAGLE   CLEAR     53  32  44 W8        29.99F
CLINES CORNERS CLEAR     46  32  58 W5        30.02S
BELEN          NOT AVBL
SOCORRO        FAIR      62  38  41 CALM      29.93R

$$
NMZ524>526-539-540-010600-
SOUTHCENTRAL MOUNTAINS

CITY           SKY/WX    TMP DP  RH WIND       PRES   REMARKS
RUIDOSO        NOT AVBL

$$
NMZ527>531-010600-
NORTHEAST HIGHLANDS/NORTHEAST PLAINS

CITY           SKY/WX    TMP DP  RH WIND       PRES   REMARKS
LAS VEGAS      CLEAR     52  31  44 NW13      30.00R
RATON          CLEAR     51  36  56 E8        29.94R
CLAYTON        CLEAR     57  40  52 W15       29.82S

$$
NMZ532>537-010600-
EASTCENTRAL PLAINS

CITY           SKY/WX    TMP DP  RH WIND       PRES   REMARKS
TUCUMCARI      CLEAR     63  41  44 W16       29.81S
CANNON AFB     CLEAR     64  46  51 W8        29.86S
CLOVIS AIRPORT   N/A     57  46  67 W9        29.88S

$$
NMZ028-029-538-010600-
SOUTHEAST PLAINS

CITY           SKY/WX    TMP DP  RH WIND       PRES   REMARKS
ROSWELL        CLEAR     62  47  57 W7        29.83S
CARLSBAD       CLEAR     65  54  67 W8        29.82S
HOBBS          CLEAR     64  54  68 W8        29.85F


$$


USA.gov is the U.S. government's official web portal to all federal, state and local government web resources and services.